This is the latest recevied weather packets stored in our database for station/object KN6DHD. If no packets are shown the sender has not sent any weather packets the latest 10 day(s).
| Time | Temp. | Humidity | Pressure | Rain* | Wind** | Luminosity | Snow |
|---|---|---|---|---|---|---|---|
| 1777836301 | 18.89° C | 64% | 1013.2 hPa | 0 mm | - | 629 W/m² | - |
| 1777835996 | 18.33° C | 64% | 1013 hPa | 0 mm | - | 613 W/m² | - |
| 1777835694 | 18.33° C | 65% | 1013.3 hPa | 0 mm | - | 459 W/m² | - |
| 1777835390 | 18.89° C | 65% | 1013.4 hPa | 0 mm | - | 342 W/m² | - |
| 1777835088 | 17.78° C | 66% | 1013.3 hPa | 0 mm | - | 328 W/m² | - |
| 1777834785 | 17.78° C | 66% | 1013.4 hPa | 0 mm | - | 304 W/m² | - |
| 1777834481 | 18.33° C | 64% | 1013.4 hPa | 0 mm | - | 631 W/m² | - |
| 1777834180 | 17.78° C | 66% | 1013.3 hPa | 0 mm | - | 396 W/m² | - |
| 1777833877 | 17.22° C | 67% | 1013.5 hPa | 0 mm | - | 311 W/m² | - |
| 1777833573 | 17.22° C | 69% | 1013.3 hPa | 0 mm | - | 266 W/m² | - |
| 1777833270 | 17.22° C | 69% | 1013.4 hPa | 0 mm | - | 246 W/m² | - |
| 1777832967 | 16.67° C | 70% | 1013.3 hPa | 0 mm | - | 263 W/m² | - |
| 1777832666 | 17.22° C | 69% | 1013.5 hPa | 0 mm | - | 266 W/m² | - |
| 1777832363 | 16.67° C | 70% | 1013.5 hPa | 0 mm | - | 256 W/m² | - |
| 1777832060 | 17.22° C | 69% | 1013.5 hPa | 0 mm | - | 263 W/m² | - |
| 1777831756 | 16.67° C | 70% | 1013.4 hPa | 0 mm | - | 248 W/m² | - |
| 1777831455 | 16.67° C | 71% | 1013.6 hPa | 0 mm | - | 236 W/m² | - |
| 1777831150 | 16.67° C | 71% | 1013.3 hPa | 0 mm | - | 242 W/m² | - |
| 1777830849 | 16.11° C | 72% | 1013.5 hPa | 0 mm | - | 240 W/m² | - |
| 1777830544 | 16.67° C | 71% | 1013.6 hPa | 0 mm | - | 232 W/m² | - |
| 1777830243 | 15.56° C | 73% | 1013.8 hPa | 0 mm | - | 220 W/m² | - |
| 1777829937 | 16.11° C | 73% | 1013.6 hPa | 0 mm | - | 220 W/m² | - |
| 1777829634 | 15.56° C | 74% | 1013.5 hPa | 0 mm | - | 229 W/m² | - |
| 1777829330 | 15.56° C | 74% | 1013.6 hPa | 0 mm | - | 246 W/m² | - |
| 1777829028 | 15.56° C | 75% | 1013.5 hPa | 0 mm | - | 219 W/m² | - |
* Rain latest hour (hover to see other rain measurements)
** Current wind speed in m/s (hover to see current wind gust speed)